Tucson, AZ

5:58 AM MST on March 30, 2017 (GMT -0700)
Tucson International

Weather History for KTUS - May, 2012

Change the Weather History Date:

Tuesday, May 29, 2012

  Actual Average Record
Temperature  
Mean Temperature 80 °F 80 °F  
Max Temperature 99 °F 96 °F 111 °F (1910)
Min Temperature 60 °F 64 °F 43 °F (1918)
Degree Days  
Heating Degree Days 0 0  
Month to date heating degree days 0 3  
Since 1 July heating degree days 1446 1509  
Cooling Degree Days 15 15  
Month to date cooling degree days 409 317  
Year to date cooling degree days 644 471  
Growing Degree Days 30 (Base 50)    
Moisture  
Dew Point 9 °F    
Average Humidity 8    
Maximum Humidity 14    
Minimum Humidity 2    
Precipitation  
Precipitation 0.00 in 0.01 in 0.37 in (1907)
Month to date precipitation T 0.22  
Year to date precipitation 0.68 3.06  
Snow  
Snow 0.00 in - - ()
Month to date snowfall 0.0  
Snow Depth 0.00 in    
Sea Level Pressure  
Sea Level Pressure 29.85 in    
Wind  
Wind Speed 6 mph (SSW)    
Max Wind Speed 17 mph    
Max Gust Speed 23 mph    
Visibility 10 miles    
Events      
T = Trace of Precipitation, MM = Missing Value Source: NWS Daily Summary

Daily Weather History Graph

Daily Weather History Graph

Search for Another Location

Airport or City:

Trip Planner

Search our weather history database for the weather conditions in past years. The results will help you decide how hot, cold, wet, or windy it might be!

Date:

Astronomy

May. 29, 2012 Rise Set
Actual Time 5:18 AM MST 7:23 PM MST
Civil Twilight 4:51 AM MST 7:51 PM MST
Nautical Twilight 4:17 AM MST 8:25 PM MST
Astronomical Twilight 3:41 AM MST 9:01 PM MST
Moon 1:18 PM MST (5/29) 12:52 AM MST (5/29)
Length of Visible Light 15h 00m
Length of Day
14h 05m
First Quarter, 60% of the Moon is Illuminated
May 29
First Quarter
Jun 4
Full
Jun 11
Last Quarter
Jun 19
New
Jun 26
First Quarter

Hourly Weather History & Observations

Time (MST) Temp. Dew Point Humidity Pressure Visibility Wind Dir Wind Speed Gust Speed Precip Events Conditions
12:53 AM 66.0 °F 10.0 °F 11% 29.83 in 10.0 mi SSE 3.5 mph - N/A   Clear
1:53 AM 64.0 °F 10.0 °F 12% 29.83 in 10.0 mi SE 9.2 mph - N/A   Clear
2:53 AM 63.0 °F 10.0 °F 13% 29.84 in 10.0 mi SSE 6.9 mph - N/A   Clear
3:53 AM 61.0 °F 10.9 °F 14% 29.85 in 10.0 mi SSE 5.8 mph - N/A   Clear
4:53 AM 60.1 °F 10.0 °F 14% 29.86 in 10.0 mi SE 9.2 mph - N/A   Clear
5:53 AM 61.0 °F 10.9 °F 14% 29.88 in 10.0 mi SSE 8.1 mph - N/A   Clear
6:53 AM 66.0 °F 10.9 °F 12% 29.90 in 10.0 mi SSE 9.2 mph - N/A   Clear
7:53 AM 73.0 °F 12.0 °F 10% 29.90 in 10.0 mi SE 4.6 mph - N/A   Clear
8:53 AM 80.1 °F 10.9 °F 7% 29.90 in 10.0 mi Variable 3.5 mph - N/A   Clear
9:53 AM 84.9 °F 10.0 °F 6% 29.89 in 10.0 mi South 3.5 mph - N/A   Clear
10:53 AM 89.1 °F 9.0 °F 5% 29.88 in 10.0 mi Calm Calm - N/A   Clear
11:53 AM 91.0 °F 8.1 °F 4% 29.87 in 10.0 mi Calm Calm - N/A   Clear
12:53 PM 95.0 °F 9.0 °F 4% 29.84 in 10.0 mi NNW 10.4 mph - N/A   Clear
1:53 PM 96.1 °F 9.0 °F 4% 29.83 in 10.0 mi WSW 9.2 mph - N/A   Clear
2:53 PM 98.1 °F 3.0 °F 4% 29.80 in 10.0 mi WNW 8.1 mph - N/A   Clear
3:30 PM 98.6 °F 1.4 °F 4% 29.93 in 10.0 mi West 13.8 mph 20.7 mph N/A   Clear
3:53 PM 97.0 °F 3.9 °F 4% 29.79 in 10.0 mi Variable 5.8 mph - N/A   Clear
4:53 PM 97.0 °F 8.1 °F 4% 29.78 in 10.0 mi West 12.7 mph 18.4 mph N/A   Clear
5:53 PM 96.1 °F 10.0 °F 4% 29.78 in 10.0 mi WNW 6.9 mph 18.4 mph N/A   Clear
6:53 PM 93.0 °F 5.0 °F 4% 29.79 in 10.0 mi WNW 11.5 mph 18.4 mph N/A   Clear
7:53 PM 89.1 °F 3.9 °F 4% 29.80 in 10.0 mi West 9.2 mph - N/A   Clear
8:53 PM 82.9 °F 7.0 °F 6% 29.82 in 10.0 mi West 5.8 mph - N/A   Clear
9:53 PM 79.0 °F 10.0 °F 7% 29.85 in 10.0 mi WNW 4.6 mph - N/A   Clear
10:53 PM 79.0 °F 10.0 °F 7% 29.86 in 10.0 mi Calm Calm - N/A   Clear
11:53 PM 73.9 °F 10.0 °F 9% 29.85 in 10.0 mi ESE 4.6 mph - N/A   Clear